This is the latest recevied weather packets stored in our database for station/object KH6HHG. If no packets are shown the sender has not sent any weather packets the latest 10 day(s).
| Time | Temp. | Humidity | Pressure | Rain* | Wind** | Luminosity | Snow |
|---|---|---|---|---|---|---|---|
| 1777933900 | 23.33° C | 81% | 1014.3 hPa | 0 mm | - | - | - |
| 1777933600 | 23.33° C | 81% | 1014.4 hPa | 0 mm | - | - | - |
| 1777933299 | 23.33° C | 83% | 1014.3 hPa | 0 mm | - | - | - |
| 1777933000 | 22.78° C | 83% | 1014.4 hPa | 0 mm | - | - | - |
| 1777932699 | 22.78° C | 82% | 1014.3 hPa | 0 mm | - | - | - |
| 1777932399 | 23.33° C | 84% | 1014.3 hPa | 0 mm | - | - | - |
| 1777932099 | 23.33° C | 83% | 1014.3 hPa | 0 mm | - | - | - |
| 1777931799 | 23.33° C | 83% | 1014.3 hPa | 0 mm | - | - | - |
| 1777931499 | 23.33° C | 85% | 1014.4 hPa | 0 mm | - | - | - |
| 1777931199 | 22.78° C | 86% | 1014.5 hPa | 0 mm | - | - | - |
| 1777930899 | 22.78° C | 85% | 1014.5 hPa | 0 mm | - | - | - |
| 1777930599 | 23.33° C | 84% | 1014.6 hPa | 0 mm | - | - | - |
| 1777930299 | 23.89° C | 81% | 1014.7 hPa | 0 mm | - | - | - |
| 1777929999 | 23.89° C | 78% | 1014.5 hPa | 0 mm | - | - | - |
| 1777929699 | 23.89° C | 77% | 1014.7 hPa | 0 mm | - | - | - |
| 1777929399 | 23.33° C | 78% | 1014.7 hPa | 0 mm | - | - | - |
| 1777929099 | 23.89° C | 77% | 1014.8 hPa | 0 mm | - | - | - |
| 1777928799 | 23.89° C | 76% | 1014.7 hPa | 0 mm | - | - | - |
| 1777928499 | 23.89° C | 75% | 1014.7 hPa | 0 mm | - | - | - |
| 1777928199 | 24.44° C | 76% | 1014.7 hPa | 0 mm | - | - | - |
| 1777927899 | 24.44° C | 77% | 1014.7 hPa | 0 mm | - | - | - |
| 1777927599 | 24.44° C | 77% | 1014.6 hPa | 0 mm | - | - | - |
| 1777927299 | 24.44° C | 77% | 1014.6 hPa | 0 mm | - | - | - |
| 1777926999 | 24.44° C | 78% | 1014.7 hPa | 0 mm | - | - | - |
| 1777926699 | 24.44° C | 78% | 1014.7 hPa | 0 mm | - | - | - |
* Rain latest hour (hover to see other rain measurements)
** Current wind speed in m/s (hover to see current wind gust speed)